When you browse on this site, cookies collect data to enhance your experience and personalize the content and advertising you see.
Visit our Privacy Policy to learn more. By continuing to use the site, you agree to this use of cookies and data.

Meteo orario Kazinki

Oggi, 3 Luglio, Venerdi

Tempo Temperatura Precipitazioni Vento Pressione Umidità
00:00 +19°C° 0.1 mm 3 m/s 740 mm Hg 90%
01:00 +19°C° 0 mm 3 m/s 740 mm Hg 91%
02:00 +18°C° 0 mm 3 m/s 740 mm Hg 92%
03:00 +18°C° 0 mm 3 m/s 741 mm Hg 92%
04:00 +19°C° 0 mm 3 m/s 741 mm Hg 92%
05:00 +19°C° 0 mm 3 m/s 741 mm Hg 92%
06:00 +19°C° 0 mm 3 m/s 741 mm Hg 91%
07:00 +21°C° 0.3 mm 3 m/s 741 mm Hg 89%
08:00 +22°C° 0.3 mm 3 m/s 741 mm Hg 86%
09:00 +25°C° 0 mm 3 m/s 742 mm Hg 82%
10:00 +25°C° 0.6 mm 4 m/s 742 mm Hg 79%
11:00 +26°C° 0.6 mm 4 m/s 742 mm Hg 76%
12:00 +27°C° 0.6 mm 4 m/s 742 mm Hg 73%
13:00 +27°C° 1.2 mm 4 m/s 742 mm Hg 73%
14:00 +27°C° 1.2 mm 4 m/s 742 mm Hg 73%
15:00 +27°C° 0 mm 4 m/s 742 mm Hg 77%
16:00 +27°C° 1.1 mm 3 m/s 742 mm Hg 78%
17:00 +27°C° 1.1 mm 3 m/s 741 mm Hg 80%
18:00 +27°C° 1.1 mm 3 m/s 741 mm Hg 82%
19:00 +25°C° 0.2 mm 2 m/s 741 mm Hg 83%
20:00 +24°C° 0.2 mm 2 m/s 742 mm Hg 85%
21:00 +23°C° 0.2 mm 2 m/s 742 mm Hg 86%
22:00 +21°C° 0.1 mm 2 m/s 742 mm Hg 87%
23:00 +21°C° 0.1 mm 2 m/s 741 mm Hg 87%

Domani, 4 Luglio, Sabato

Tempo Temperatura Precipitazioni Vento Pressione Umidità
00:00 +20°C° 0.1 mm 2 m/s 741 mm Hg 87%
01:00 +20°C° 0 mm 2 m/s 741 mm Hg 87%
02:00 +19°C° 0 mm 2 m/s 741 mm Hg 87%
03:00 +19°C° 0 mm 2 m/s 741 mm Hg 87%
04:00 +19°C° 0 mm 2 m/s 741 mm Hg 88%
05:00 +19°C° 0 mm 2 m/s 741 mm Hg 88%
06:00 +20°C° 0 mm 2 m/s 741 mm Hg 89%
07:00 +21°C° 0 mm 2 m/s 741 mm Hg 86%
08:00 +24°C° 0 mm 2 m/s 741 mm Hg 83%
09:00 +26°C° 0 mm 3 m/s 741 mm Hg 80%
10:00 +27°C° 0.1 mm 3 m/s 741 mm Hg 75%
11:00 +28°C° 0.1 mm 3 m/s 741 mm Hg 70%
12:00 +29°C° 0.1 mm 3 m/s 741 mm Hg 65%
13:00 +29°C° 1 mm 3 m/s 741 mm Hg 67%
14:00 +28°C° 1 mm 3 m/s 740 mm Hg 69%
15:00 +28°C° 1 mm 3 m/s 740 mm Hg 71%
16:00 +28°C° 0.8 mm 3 m/s 740 mm Hg 75%
17:00 +27°C° 0.8 mm 3 m/s 740 mm Hg 78%
18:00 +27°C° 0.8 mm 2 m/s 740 mm Hg 81%
19:00 +26°C° 0.1 mm 2 m/s 740 mm Hg 83%
20:00 +25°C° 0.1 mm 2 m/s 740 mm Hg 85%
21:00 +23°C° 0.1 mm 2 m/s 740 mm Hg 87%
22:00 +23°C° 0.2 mm 2 m/s 740 mm Hg 88%
23:00 +21°C° 0.2 mm 2 m/s 740 mm Hg 89%

Dopodomani, 5 Luglio, Domenica

Tempo Temperatura Precipitazioni Vento Pressione Umidità
00:00 +21°C° 0.2 mm 2 m/s 740 mm Hg 89%
01:00 +20°C° 0 mm 2 m/s 740 mm Hg 90%
02:00 +20°C° 0 mm 2 m/s 740 mm Hg 90%
03:00 +20°C° 0 mm 2 m/s 740 mm Hg 91%
04:00 +20°C° 0 mm 2 m/s 740 mm Hg 91%
05:00 +20°C° 0 mm 2 m/s 740 mm Hg 91%
06:00 +21°C° 0 mm 1 m/s 740 mm Hg 91%
07:00 +21°C° 0.1 mm 2 m/s 740 mm Hg 88%
08:00 +23°C° 0.1 mm 2 m/s 740 mm Hg 86%
09:00 +24°C° 0.1 mm 2 m/s 740 mm Hg 84%
10:00 +25°C° 0 mm 2 m/s 740 mm Hg 80%
11:00 +26°C° 0 mm 2 m/s 740 mm Hg 76%
12:00 +27°C° 0 mm 2 m/s 740 mm Hg 72%
13:00 +25°C° 1 mm 2 m/s 740 mm Hg 78%
14:00 +24°C° 1 mm 2 m/s 740 mm Hg 83%
15:00 +23°C° 1 mm 2 m/s 740 mm Hg 88%
16:00 +23°C° 0 mm 2 m/s 739 mm Hg 86%
17:00 +23°C° 0 mm 2 m/s 739 mm Hg 85%
18:00 +24°C° 0 mm 2 m/s 739 mm Hg 84%
19:00 +23°C° 0 mm 2 m/s 739 mm Hg 85%
20:00 +21°C° 0 mm 2 m/s 739 mm Hg 86%
21:00 +21°C° 0 mm 2 m/s 739 mm Hg 88%
22:00 +20°C° 0 mm 2 m/s 739 mm Hg 89%
23:00 +19°C° 0 mm 2 m/s 739 mm Hg 90%

6 Luglio, Lunedi

Tempo Temperatura Precipitazioni Vento Pressione Umidità
00:00 +19°C° 0 mm 2 m/s 739 mm Hg 91%
01:00 +19°C° 0 mm 1 m/s 739 mm Hg 91%
02:00 +19°C° 0 mm 1 m/s 739 mm Hg 92%
03:00 +19°C° 0 mm 1 m/s 739 mm Hg 92%
04:00 +19°C° 0 mm 1 m/s 739 mm Hg 91%
05:00 +20°C° 0 mm 1 m/s 739 mm Hg 90%
06:00 +21°C° 0 mm 1 m/s 739 mm Hg 90%
07:00 +22°C° 0 mm 1 m/s 740 mm Hg 85%
08:00 +21°C° 0 mm 0 m/s 740 mm Hg 80%
09:00 +23°C° 0 mm 0 m/s 740 mm Hg 75%
10:00 +26°C° 0 mm 1 m/s 740 mm Hg 71%
11:00 +26°C° 0 mm 1 m/s 740 mm Hg 68%
12:00 +27°C° 0 mm 1 m/s 740 mm Hg 64%
13:00 +28°C° 0 mm 1 m/s 740 mm Hg 63%
14:00 +28°C° 0 mm 2 m/s 740 mm Hg 63%
15:00 +29°C° 0 mm 2 m/s 739 mm Hg 62%
16:00 +29°C° 0 mm 2 m/s 739 mm Hg 65%
17:00 +28°C° 0 mm 1 m/s 739 mm Hg 67%
18:00 +28°C° 0 mm 1 m/s 739 mm Hg 69%
19:00 +27°C° 0 mm 1 m/s 739 mm Hg 73%
20:00 +25°C° 0 mm 1 m/s 739 mm Hg 77%
21:00 +24°C° 0 mm 1 m/s 739 mm Hg 81%
22:00 +23°C° 0 mm 1 m/s 739 mm Hg 83%
23:00 +23°C° 0 mm 1 m/s 738 mm Hg 84%

7 Luglio, Martedi

Tempo Temperatura Precipitazioni Vento Pressione Umidità
00:00 +21°C° 0 mm 2 m/s 738 mm Hg 86%
01:00 +21°C° 0 mm 2 m/s 738 mm Hg 87%
02:00 +20°C° 0 mm 2 m/s 738 mm Hg 88%
03:00 +20°C° 0 mm 2 m/s 738 mm Hg 88%
04:00 +20°C° 0 mm 2 m/s 738 mm Hg 87%
05:00 +21°C° 0 mm 2 m/s 738 mm Hg 86%
06:00 +21°C° 0 mm 2 m/s 738 mm Hg 84%
07:00 +22°C° 0 mm 3 m/s 738 mm Hg 81%
08:00 +25°C° 0 mm 3 m/s 738 mm Hg 77%
09:00 +26°C° 0 mm 3 m/s 738 mm Hg 73%
10:00 +27°C° 0 mm 3 m/s 738 mm Hg 69%
11:00 +29°C° 0 mm 2 m/s 737 mm Hg 66%
12:00 +30°C° 0 mm 2 m/s 737 mm Hg 62%
13:00 +30°C° 0 mm 3 m/s 737 mm Hg 64%
14:00 +30°C° 0 mm 3 m/s 737 mm Hg 65%
15:00 +30°C° 0 mm 3 m/s 736 mm Hg 67%
16:00 +30°C° 0 mm 3 m/s 736 mm Hg 69%
17:00 +30°C° 0 mm 2 m/s 736 mm Hg 72%
18:00 +30°C° 0 mm 2 m/s 736 mm Hg 74%
19:00 +28°C° 0.1 mm 2 m/s 736 mm Hg 77%
20:00 +27°C° 0.1 mm 1 m/s 736 mm Hg 80%
21:00 +25°C° 0.1 mm 1 m/s 736 mm Hg 82%
22:00 +25°C° 0.1 mm 1 m/s 736 mm Hg 82%
23:00 +24°C° 0.1 mm 2 m/s 736 mm Hg 83%

8 Luglio, Mercoledi

Tempo Temperatura Precipitazioni Vento Pressione Umidità
00:00 +24°C° 0.1 mm 2 m/s 736 mm Hg 83%
01:00 +23°C° 0.1 mm 2 m/s 735 mm Hg 81%
02:00 +21°C° 0.1 mm 2 m/s 735 mm Hg 79%
03:00 +21°C° 0.1 mm 2 m/s 735 mm Hg 77%
04:00 +21°C° 0.2 mm 2 m/s 735 mm Hg 81%
05:00 +21°C° 0.2 mm 2 m/s 735 mm Hg 84%
06:00 +22°C° 0.2 mm 1 m/s 735 mm Hg 88%
07:00 +21°C° 0.1 mm 2 m/s 735 mm Hg 87%
08:00 +23°C° 0.1 mm 2 m/s 736 mm Hg 85%
09:00 +24°C° 0.1 mm 2 m/s 736 mm Hg 84%
10:00 +24°C° 0 mm 3 m/s 736 mm Hg 82%
11:00 +25°C° 0 mm 3 m/s 736 mm Hg 80%
12:00 +26°C° 0 mm 3 m/s 737 mm Hg 77%
13:00 +26°C° 0 mm 4 m/s 737 mm Hg 79%
14:00 +25°C° 0 mm 5 m/s 737 mm Hg 80%
15:00 +25°C° 0 mm 5 m/s 737 mm Hg 82%
16:00 +23°C° 0.1 mm 5 m/s 737 mm Hg 82%
17:00 +23°C° 0.1 mm 5 m/s 737 mm Hg 83%
18:00 +22°C° 0.1 mm 4 m/s 737 mm Hg 83%
19:00 +21°C° 0.1 mm 4 m/s 737 mm Hg 85%
20:00 +20°C° 0.1 mm 3 m/s 737 mm Hg 87%
21:00 +20°C° 0.1 mm 2 m/s 738 mm Hg 89%
22:00 +19°C° 0.1 mm 3 m/s 738 mm Hg 88%
23:00 +18°C° 0.1 mm 3 m/s 738 mm Hg 87%
Mostrare altro